Location: Maiden
(35.5760°N, 81.2120°W)
Time: 02:17:20
(UTC-04:00)

Vanguard 2 - Pass Details

Date: 08 August 2020
Orbit: 553 x 2937 km, 32.9° (Epoch: 20 September)

Event Time Altitude Azimuth Distance (km) Brightness Sun altitude
Rises 23:38:23 0° 258° (WSW) 6,628 12.5 -32.2°
Reaches altitude 10° 23:43:08 10° 257° (WSW) 5,419 12.0 -32.8°
Maximum altitude 23:58:25 77° 175° (S) 1,985 9.2 -34.3°
Enters shadow 00:00:16 66° 116° (ESE) 1,970 9.2 -34.4°
Drops below altitude 10° 00:07:39 10° 91° (E) 3,439 - -35.1°
Sets 00:10:01 0° 90° (E) 4,158 - -35.3°
